Weather in Grabovo

Russia / Penza Oblast     53°22′38″N   45°03′47″E
temp.,
°C
wind,
m/s
gust,
m/s
humid.,
%
clouds,
%
prec.,
mm/h
press.,
hPa
HPBL,
m
19 january, wed
wed1900:00−2s5119499 0.1 1010427
03:00−2s3997100 0.5 1011385
06:00−3s3797100 0.2 1011258
09:00−6ne0098100 0.6 101210
12:00−5n4596100 1.7 1013224
15:00−5nnw239699 2.1 1015208
18:00−11nw119894 0.2 101710
21:00−15nnw1110091 0.3 10189
20 january, thu
thu2000:00−16s22100100 0.1 101911
03:00−18s2210097 0.1 101910
06:00−21s22100100 0.0 101919
09:00−20s23100100 0.1 102047
12:00−12ssw389682 0.0 1019213
15:00−12s369621 0.0 1018125
18:00−19s2210082 0.0 101918
21:00−20sse3410090 0.0 101954
21 january, fri
fri2100:00−21sse2210099 0.0 101930
03:00−20sse3410098 0.0 101948
06:00−21sse2210099 0.0 101825
09:00−18sse31110097 0.0 1018183
12:00−9sse6169166 0.0 1016510
15:00−9sse81787100 0.0 1014511
18:00−10sse81887100 0.0 1013510
21:00−9sse81892100 0.1 1012569
22 january, sat
sat2200:00−8sse71594100 1.4 1012570
03:00−8sse61295100 3.1 1012419
06:00−9sse489598 0.3 1013198
09:00−8se479674 0.3 1015179
12:00−7s259579 0.0 1017235
15:00−8s119629 0.0 101812
18:00−15se11100100 0.0 10209
21:00−15ne11100100 0.0 10219
23 january, sun
sun2300:00−9nne119797 0.3 102127
03:00−7nnw2296100 1.3 102286
06:00−8wnw1197100 0.7 102320
09:00−12nw1199100 0.7 102512
12:00−7nne1194100 0.0 102778
15:00−7nne2395100 0.0 1027103
18:00−7nne2496100 0.1 102995
21:00−5ene3697100 0.7 1029253